Voltar ao catálogo

COSMOS 1911

AtivoMilitarPO
NORAD 18790·PAYLOAD·🇷🇺 Russia

Lançado Jan 15, 1988 de Plesetsk Cosmodrome

Loading…

Próximas Passagens (próximas 24 horas)

TLE

AtualizadoSource: Space-Track

Época: Sep 14, 2026, 05:44 UTC

1 18790U 88002C   26257.23907862  .00000019  00000-0  45342-4 0  9994
2 18790  82.6119 191.7259 0006336 297.5244 239.8542 12.64386242784201

Acompanhe COSMOS 1911 em tempo real com AllMySat

Download on the App Store